Content
SEND FEEDBACK

Daily
Averages
Monthly
Summary
United States of America

BELLEVILLE, MICHIGAN


Home > North America > United States > Michigan
Elevation: 780 feet     Latitude: 42 14N     Longitude: 083 32W

WEATHER
 
SELECT A DAY
Number of Records: 206,596;   Date Range: 1/1/95 - 11/21/14
 
SHARE

PRINT THIS DATA

[ ← Previous Day ]
WEATHER ALMANAC - JANUARY 18, 2013
[ Next Day → ]
[ °C ]   °F
Weather ElementAverageHighLow
Temperature29.2 °F36 °F (2:53 pm)19.9 °F (5:53 am)
Dewpoint13.9 °F21.9 °F (11:53 pm)6.1 °F (4:53 am)
Humidity53 %57 % (6:53 am)46 % (1:53 pm)
Barometer30.28 in30.45 in (7:53 am)30.00 in (11:53 pm)
Wind Speed13.8 mph27.6 mph (8:53 pm)
Wind Gust34.5 mph (7:53 pm)
Weather ElementAverage
Visibility10 mi
Wind DirectionSSW (204.8 °)

Weather ElementTotal
Precipitation---
Heating Degree Days37.1 (Base 65)
Averaged from 23 records on January 18, 2013
WEATHER CONDITIONS BREAKOUT
WIND DIRECTION BREAKOUT
WEATHER BY HOUR - JANUARY 18, 2013
[ °C ]   °F
Local TimeTemperatureDewpointHumidityBarometerVisibilityWind DirectionWind SpeedGust SpeedPrecipitationEventsConditions
1:53 AM21.9 °F8.1 °F55 %30.38 in10.0 miNW (320°)6.9 mphOvercast
2:53 AM21.9 °F8.1 °F55 %30.41 in10.0 miNW (320°)4.6 mphOvercast
3:53 AM21.9 °F8.1 °F55 %30.43 in10.0 miWNW (300°)8.1 mphOvercast
4:53 AM21.9 °F6.1 °F51 %30.42 in10.0 miWest (280°)9.2 mphOvercast
5:53 AM19.9 °F6.1 °F55 %30.44 in10.0 miWest (280°)8.1 mphMostly Cloudy
6:53 AM19.9 °F7.0 °F57 %30.44 in10.0 miCalmOvercast
7:53 AM19.9 °F7.0 °F57 %30.45 in10.0 miCalmMostly Cloudy
8:53 AM21.9 °F8.1 °F55 %30.45 in10.0 miSouth (190°)3.5 mphScattered Clouds
9:53 AM24.1 °F8.1 °F51 %30.45 in10.0 miSouth (180°)6.9 mphMostly Cloudy
10:53 AM27.0 °F12.0 °F53 %30.44 in10.0 miSouth (170°)10.4 mphOvercast
11:53 AM28.9 °F15.1 °F56 %30.40 in10.0 miSW (220°)13.8 mphOvercast
12:53 PM30.9 °F16.0 °F54 %30.34 in10.0 miSSW (210°)16.1 mphOvercast
1:53 PM34.0 °F15.1 °F46 %30.28 in10.0 miSSW (210°)18.4 mph25.3 mphMostly Cloudy
2:53 PM36.0 °F17.1 °F46 %30.23 in10.0 miSSW (200°)18.4 mph28.8 mphClear
3:53 PM35.1 °F18.0 °F50 %30.20 in10.0 miSSW (200°)25.3 mphClear
4:53 PM35.1 °F19.0 °F52 %30.16 in10.0 miSouth (190°)19.6 mph28.8 mphScattered Clouds
5:53 PM35.1 °F19.9 °F54 %30.14 in10.0 miSSW (200°)19.6 mph27.6 mphClear
6:53 PM35.1 °F19.9 °F54 %30.11 in10.0 miSSW (200°)23.0 mph28.8 mphMostly Cloudy
7:53 PM36.0 °F18.0 °F48 %30.07 in10.0 miSSW (200°)23.0 mph34.5 mphClear
8:53 PM36.0 °F19.0 °F50 %30.05 in10.0 miSSW (210°)27.6 mph33.4 mphClear
9:53 PM36.0 °F19.9 °F52 %30.05 in10.0 miSSW (210°)20.7 mph26.5 mphClear
10:53 PM36.0 °F21.0 °F55 %30.03 in10.0 miSSW (210°)18.4 mph25.3 mphClear
11:53 PM36.0 °F21.9 °F57 %30.00 in10.0 miSSW (210°)15.0 mph26.5 mphClear
Hourly data recorded from KYIP, located miles away from Belleville, Michigan







STORIES FROM OUR PARTNERS